Weather reports worldwide

Advertisment
Tyndrum, United Kingdom (99020): temperature & dewpoint: 17.10.2017 03:00:00 - 23.10.2017 03:00:00 (BST)Tyndrum, United Kingdom (99020): precipitation: 17.10.2017 03:00:00 - 23.10.2017 03:00:00 (BST)
Date & Time tt [°C] td [°C] rr [mm]
23.10.2017 03:00:00 5,5 5,1 -
23.10.2017 02:00:00 5,1 4,7 0,0
23.10.2017 01:00:00 4,8 4,4 0,0
23.10.2017 00:00:00 4,3 3,9 0,0
22.10.2017 23:00:00 4,2 3,4 0,0
22.10.2017 22:00:00 4,9 3,2 0,0
22.10.2017 21:00:00 6,4 4,1 0,0
22.10.2017 20:00:00 7,1 5,8 -
22.10.2017 19:00:00 8,1 6,6 0,0
22.10.2017 18:00:00 8,6 6,7 0,0
22.10.2017 17:00:00 9,0 7,7 0,2
22.10.2017 16:00:00 11,0 8,2 0,0
22.10.2017 15:00:00 10,5 8,4 0,0
22.10.2017 14:00:00 10,7 9,4 0,2
22.10.2017 13:00:00 10,7 8,8 -
22.10.2017 12:00:00 10,5 9,9 0,4
22.10.2017 11:00:00 9,9 9,2 0,4
22.10.2017 10:00:00 10,0 9,4 1,6
22.10.2017 09:00:00 9,7 9,2 0,4
22.10.2017 08:00:00 9,6 9,3 1,2
22.10.2017 07:00:00 9,2 8,9 -
22.10.2017 06:00:00 9,3 8,7 1,2
22.10.2017 05:00:00 - - 0,6
22.10.2017 04:00:00 9,4 8,9 0,0
22.10.2017 03:00:00 9,4 9,1 0,2
22.10.2017 02:00:00 9,6 9,4 0,0
22.10.2017 01:00:00 9,0 8,6 0,0
22.10.2017 00:00:00 9,3 8,9 -
21.10.2017 23:00:00 9,8 9,4 0,2
21.10.2017 22:00:00 10,1 9,6 0,0
21.10.2017 21:00:00 10,1 9,4 -
21.10.2017 20:00:00 10,6 9,2 0,0
21.10.2017 19:00:00 11,1 9,2 0,0
21.10.2017 18:00:00 11,2 9,4 0,0
21.10.2017 17:00:00 10,8 9,4 -
21.10.2017 16:00:00 10,8 9,3 0,4
21.10.2017 15:00:00 10,7 9,0 0,8
21.10.2017 14:00:00 10,9 8,5 0,2
21.10.2017 13:00:00 11,4 9,1 0,0
21.10.2017 12:00:00 11,2 8,8 0,8
21.10.2017 11:00:00 10,8 8,7 1,6
21.10.2017 10:00:00 10,7 8,6 0,6
21.10.2017 09:00:00 11,2 8,3 0,0
21.10.2017 08:00:00 9,6 8,3 0,2
21.10.2017 07:00:00 - - -
21.10.2017 06:00:00 - - -
21.10.2017 05:00:00 - - -
21.10.2017 04:00:00 - - -
21.10.2017 03:00:00 - - -
21.10.2017 02:00:00 - - -
21.10.2017 01:00:00 - - -
21.10.2017 00:00:00 - - -
20.10.2017 23:00:00 - - -
20.10.2017 22:00:00 - - -
20.10.2017 21:00:00 - - -
20.10.2017 20:00:00 11,0 8,7 0,0
20.10.2017 19:00:00 11,2 9,6 0,0
20.10.2017 18:00:00 12,5 9,5 0,0
20.10.2017 17:00:00 12,6 10,1 0,0
20.10.2017 16:00:00 13,6 10,8 0,0
20.10.2017 15:00:00 13,8 10,6 0,0
20.10.2017 14:00:00 15,4 10,3 0,0
20.10.2017 13:00:00 14,2 11,1 0,0
20.10.2017 12:00:00 12,8 11,7 0,0
20.10.2017 11:00:00 11,3 11,1 0,0
20.10.2017 10:00:00 10,4 10,4 0,0
20.10.2017 09:00:00 9,4 9,3 0,0
20.10.2017 08:00:00 9,4 9,3 0,0
20.10.2017 07:00:00 9,3 9,2 0,0
20.10.2017 06:00:00 9,4 9,2 0,0
20.10.2017 05:00:00 9,4 9,3 0,0
20.10.2017 04:00:00 9,1 8,8 0,2
20.10.2017 03:00:00 10,0 9,7 0,0
20.10.2017 02:00:00 10,0 9,6 0,2
20.10.2017 01:00:00 10,2 9,7 0,4
20.10.2017 00:00:00 10,6 9,9 0,4
19.10.2017 23:00:00 11,2 9,9 0,8
19.10.2017 22:00:00 11,4 9,9 0,2
19.10.2017 21:00:00 11,6 9,9 0,0
19.10.2017 20:00:00 11,6 10,1 0,4
19.10.2017 19:00:00 11,7 10,0 0,0
19.10.2017 18:00:00 12,4 9,9 0,0
19.10.2017 17:00:00 12,6 10,0 0,0
19.10.2017 16:00:00 12,5 10,2 0,0
19.10.2017 15:00:00 12,3 10,3 0,0
19.10.2017 14:00:00 12,2 10,2 0,0
19.10.2017 13:00:00 11,8 10,4 0,0
19.10.2017 12:00:00 12,0 10,0 0,0
19.10.2017 11:00:00 11,8 9,7 0,0
19.10.2017 10:00:00 11,6 9,9 0,0
19.10.2017 09:00:00 10,9 10,0 0,0
19.10.2017 08:00:00 10,4 9,6 0,2
19.10.2017 07:00:00 9,9 9,6 0,0
19.10.2017 06:00:00 9,6 8,9 0,6
19.10.2017 05:00:00 9,8 8,9 1,0
19.10.2017 04:00:00 9,6 8,8 0,4
19.10.2017 03:00:00 9,5 8,4 0,0
19.10.2017 02:00:00 8,7 8,0 0,2
19.10.2017 01:00:00 8,9 7,6 1,0
19.10.2017 00:00:00 9,4 7,1 0,0
18.10.2017 23:00:00 9,1 6,8 0,0
18.10.2017 22:00:00 9,0 6,8 0,0
18.10.2017 21:00:00 8,9 6,9 0,0
18.10.2017 20:00:00 8,7 6,9 0,0
18.10.2017 19:00:00 8,3 6,9 0,2
18.10.2017 18:00:00 8,5 7,1 0,0
18.10.2017 17:00:00 8,7 7,0 0,2
18.10.2017 16:00:00 8,9 7,3 0,0
18.10.2017 15:00:00 9,0 7,2 0,0
18.10.2017 14:00:00 9,2 7,0 0,0
18.10.2017 13:00:00 9,1 6,8 0,0
18.10.2017 12:00:00 8,5 6,6 0,0
18.10.2017 11:00:00 8,2 6,0 0,0
18.10.2017 10:00:00 8,4 5,8 0,0
18.10.2017 09:00:00 8,0 5,5 0,0
18.10.2017 08:00:00 8,0 5,4 0,0
18.10.2017 07:00:00 8,1 5,5 0,0
18.10.2017 06:00:00 8,3 5,9 0,0
18.10.2017 05:00:00 8,4 6,5 0,0
18.10.2017 04:00:00 8,5 6,7 0,0
18.10.2017 03:00:00 9,0 6,5 0,0
18.10.2017 02:00:00 9,2 6,3 0,0
18.10.2017 01:00:00 8,7 7,2 0,0
18.10.2017 00:00:00 9,0 6,9 0,0
17.10.2017 23:00:00 9,1 6,9 0,0
17.10.2017 22:00:00 9,5 6,9 0,0
17.10.2017 21:00:00 9,3 7,3 0,0
17.10.2017 20:00:00 10,2 7,5 0,0
17.10.2017 19:00:00 9,8 8,5 0,0
17.10.2017 18:00:00 10,6 9,1 0,0
17.10.2017 17:00:00 11,5 9,3 0,0
17.10.2017 16:00:00 11,7 9,1 0,0
17.10.2017 15:00:00 12,3 9,6 0,0
17.10.2017 14:00:00 11,8 9,8 0,0
17.10.2017 13:00:00 11,6 10,1 0,0
17.10.2017 12:00:00 11,2 9,8 0,2
17.10.2017 11:00:00 11,2 9,8 0,0
17.10.2017 10:00:00 11,1 10,0 0,8
17.10.2017 09:00:00 11,6 10,0 0,0
17.10.2017 08:00:00 11,6 9,7 0,4
17.10.2017 07:00:00 11,9 9,8 0,2
17.10.2017 06:00:00 12,0 10,0 0,8
17.10.2017 05:00:00 12,6 10,3 0,8
17.10.2017 04:00:00 12,8 10,8 4,4
17.10.2017 03:00:00 12,7 10,5 3,8

tt = temperature
td = dewpoint
rr = precipitation

Next stations